Flag for U.S.A. Weather past 2 weeks in Lexington, Virginia, U.S.A.

Now
37 °F

Partly sunny.


Feels Like: 34 °F
Forecast: 33 / 66 °F
Wind: 5 mph from Northwest

Location: Hot Springs / Ingalls


UV Index: 7 (High)

Visibility: 10 mi


Pressure: 30.13 "Hg

Humidity: 45%

Dew point: 18 °F

Location of LexingtonLocation

Historic Weather in Lexington

°F

Lexington temperature yesterday

Maximum temperature yesterday: 52 °F (at 2:15 PM)
Minimum temperature yesterday: 36 °F (at 6:15 AM)
Average temperature yesterday: 43 °F

Past Weeks' High & Low Weather Summary

 TemperatureHumidityPressure
High72 °F (Apr 13, 1:35 PM)100% (Apr 14, 6:27 AM)30.52 "Hg (Apr 14, 6:27 AM)
Low16 °F (Apr 16, 4:15 AM)26% (Apr 21, 12:55 PM)29.70 "Hg (Apr 15, 9:10 AM)
Average48 °F60%30.16 "Hg
* Reported Apr 9 8:15 AM — Apr 24 8:15 AM, Lexington, Weather by CustomWeather, © 2014

Note: Actual official high and low records may vary slightly from our data, if they occured in-between our weather recording intervals... More about our weather records

Advertising

Historic Weather Conditions — Data for Previous 24 hours

 ConditionsComfort  
Time TempWeatherWind HumidityBarometerVisibility
8:15 AM
Apr 24
36 °FOvercast.8 mph52%30.12 "Hg10 mi
7:55 AM36 °FOvercast.9 mph56%30.11 "Hg10 mi
7:35 AM34 °FPartly sunny.6 mph65%30.11 "Hg10 mi
7:15 AM34 °FPassing clouds.6 mph70%30.10 "Hg10 mi
6:55 AM34 °FOvercast.6 mph75%30.09 "Hg10 mi
6:15 AM34 °FPassing clouds.9 mph75%30.08 "Hg10 mi
5:55 AM34 °FClear.8 mph81%30.08 "Hg10 mi
5:35 AM34 °FClear.8 mph81%30.08 "Hg10 mi
5:15 AM34 °FClear.10 mph81%30.07 "Hg10 mi
4:55 AM34 °FClear.12 mph81%30.07 "Hg10 mi
4:15 AM34 °FClear.13 mph81%30.05 "Hg10 mi
3:55 AM34 °FClear.12 mph81%30.05 "Hg10 mi
3:10 AM34 °FClear.9 mph75%30.04 "Hg10 mi
2:55 AM36 °FClear.8 mph70%30.04 "Hg10 mi
2:35 AM36 °FClear.10 mph70%30.04 "Hg10 mi
2:15 AM36 °FClear.8 mph70%30.05 "Hg10 mi
1:55 AM36 °FClear.8 mph70%30.06 "Hg10 mi
1:15 AM37 °FClear.9 mph65%30.06 "Hg10 mi
12:55 AM37 °FClear.6 mph65%30.05 "Hg10 mi
12:35 AM37 °FClear.13 mph70%30.05 "Hg10 mi
12:15 AM37 °FClear.12 mph70%30.05 "Hg10 mi
11:55 PM
Apr 23
37 °FClear.14 mph65%30.05 "Hg10 mi
11:10 PM39 °FClear.12 mph65%30.04 "Hg10 mi
10:55 PM39 °FClear.10 mph65%30.04 "Hg10 mi
10:35 PM39 °FClear.14 mph61%30.03 "Hg10 mi
10:15 PM39 °FClear.20 mph61%30.03 "Hg10 mi
9:55 PM41 °FClear.25 mph61%30.03 "Hg10 mi
9:10 PM43 °FClear.10 mph53%30.02 "Hg10 mi
8:55 PM43 °FSunny.18 mph53%30.01 "Hg10 mi
8:35 PM43 °FSunny.15 mph53%30.01 "Hg10 mi
8:15 PM43 °FSunny.17 mph53%30.00 "Hg10 mi
7:55 PM45 °FSunny.16 mph49%30.00 "Hg10 mi
7:15 PM46 °FSunny.13 mph46%29.97 "Hg10 mi
6:55 PM46 °FSunny.17 mph46%29.97 "Hg10 mi
6:15 PM48 °FSunny.18 mph43%29.96 "Hg10 mi
5:55 PM48 °FSunny.15 mph43%29.96 "Hg10 mi
5:15 PM50 °FSunny.14 mph40%29.95 "Hg10 mi
4:55 PM50 °FSunny.18 mph40%29.95 "Hg10 mi
4:15 PM50 °FSunny.15 mph40%29.95 "Hg10 mi
3:55 PM50 °FSunny.18 mph40%29.94 "Hg10 mi
3:15 PM50 °FSunny.17 mph43%29.93 "Hg10 mi
2:55 PM52 °FSunny.15 mph41%29.92 "Hg10 mi
2:35 PM48 °FSunny.18 mph46%29.92 "Hg10 mi
2:15 PM52 °FSunny.15 mph38%29.93 "Hg10 mi
1:35 PM48 °FSunny.17 mph43%29.91 "Hg10 mi
1:15 PM46 °FSunny.17 mph46%29.91 "Hg10 mi
12:55 PM46 °FSunny.23 mph46%29.91 "Hg10 mi
12:15 PM46 °FSunny.14 mph46%29.91 "Hg10 mi
11:55 AM45 °FSunny.13 mph53%29.91 "Hg10 mi
11:35 AM45 °FSunny.16 mph49%29.91 "Hg10 mi
11:15 AM43 °FSunny.15 mph53%29.90 "Hg10 mi
10:55 AM43 °FSunny.18 mph57%29.89 "Hg10 mi
10:15 AM43 °FSunny.16 mph57%29.88 "Hg10 mi
9:55 AM41 °FSunny.21 mph57%29.87 "Hg10 mi
9:15 AM39 °FSunny.20 mph61%29.85 "Hg10 mi
Weather by CustomWeather, © 2014

See weather overview